Terminal Aerodrome Forecast
Issued by NWS Sterling, VA

Current Version | Previous Version | Graphics & Text | Print | Product List | Glossary On
Versions: 1 2 3 4 5 6 7 8 9 10 11 12 13 14 15 16 17 18 19 20 21 22 23 24
000
FTUS41 KLWX 260800 AAA
TAFIAD
TAF AMD
KIAD 260853Z 2609/2712 VRB04KT P6SM FEW050 OVC130
     FM261500 23007KT P6SM BKN050 BKN130
     FM270000 18004KT P6SM FEW050 SCT130=

USA.gov is the U.S. government's official web portal to all federal, state and local government web resources and services.